[[{"header":{"parameterUnit":"m.s-1","parameterCategory":1,"la1":30.2991,"la2":30.254,"lo1":-89.0895,"lo2":-89.0444,"dy":0.0017,"dx":0.0017,"nx":28,"ny":28,"refTime":"2024-06-12T21:00:00:Z","depth":0,"parameterNumber":2,"parameterNumberName":"U-component_of_WINDS"},"data":[0,0,0,0,0,0,0,0,0,0,0,0,0,0,0,0,0,0,0,0,0,0,0,0,0,0,0,0,0,0,0,0,0,0,0,0,0,0,0,0,0,0,0,0,0,0,0,0,0,0,0,0,0,0,0,0,0,0,-0.6991,-0.699,0,-0.6894,-0.6893,-0.6892,-0.679,-0.6789,-0.6787,-0.6786,-0.6686,-0.6685,-0.6683,0,0,0,0,0,0,0,0,0,0,0,0,0,-0.7089,-0.7088,-0.6991,-0.699,-0.6989,-0.6894,-0.6893,-0.6891,-0.679,-0.6789,-0.6787,-0.6785,-0.6687,-0.6685,-0.6683,0,0,0,0,0,0,0,0,0,0,0,0,0,-0.7025,-0.7088,-0.6992,-0.6927,-0.692,-0.6894,-0.6893,-0.6891,-0.6791,-0.6789,-0.6787,-0.6785,-0.6687,-0.6685,-0.6683,-0.6713,0,0,-0.6677,-0.6676,0,0,0,0,0,0,0,0,-0.7029,-0.7021,-0.6938,-0.6932,-0.6924,-0.6852,-0.689,-0.6831,-0.6791,-0.684,-0.6786,-0.6784,-0.6743,-0.6736,-0.6723,-0.6708,-0.6704,-0.6677,-0.6675,-0.6675,-0.6674,0,0,0,0,0,0,0,-0.7033,-0.7025,-0.6953,-0.6937,-0.6928,-0.6903,-0.6891,-0.6879,-0.6805,-0.6836,-0.6828,-0.6818,-0.6739,-0.6725,-0.6719,-0.6702,-0.6677,-0.6675,-0.6674,-0.6673,-0.6705,-0.6707,0,0,0,0,0,0,-0.7047,-0.7029,-0.6956,-0.695,-0.6972,-0.6903,-0.689,-0.6877,-0.6804,-0.6791,-0.682,-0.6814,-0.6729,-0.6722,-0.6716,-0.6745,-0.6675,-0.6673,-0.6672,-0.6703,-0.6706,-0.6708,0,0,0,0,0,0,-0.705,-0.7042,-0.696,-0.6987,-0.6975,-0.6903,-0.689,-0.6876,-0.6862,-0.6792,-0.6779,-0.6819,-0.6727,-0.6718,-0.6714,-0.674,-0.6672,-0.667,-0.6701,-0.6704,-0.6707,-0.6804,0,0,0,0,0,0,-0.7053,-0.7043,-0.7054,-0.6988,-0.6974,-0.6961,-0.6891,-0.6876,-0.6859,-0.685,-0.6788,-0.6776,-0.6725,-0.6717,-0.6712,-0.6736,-0.6668,-0.6698,-0.6702,-0.6706,-0.6799,-0.6811,-0.6821,0,0,0,0,0,-0.7057,-0.7086,-0.7056,-0.7047,-0.6986,-0.6962,-0.6954,-0.6895,-0.6862,-0.6872,-0.6826,-0.6778,-0.6738,-0.6718,-0.6711,-0.6735,-0.6696,-0.6701,-0.6706,-0.6794,-0.6808,-0.682,0,0,0,0,0,0,-0.7157,-0.7076,-0.7042,-0.705,-0.7014,-0.6945,-0.6956,-0.6912,-0.6885,-0.6877,-0.6805,-0.6792,-0.6796,-0.6764,-0.6743,-0.6759,-0.671,-0.6714,-0.6779,-0.6793,-0.6804,-0.6812,-0.6667,0,0,0,0,0,-0.718,-0.7168,-0.7097,-0.7112,-0.7095,-0.7029,-0.7016,-0.6974,-0.6933,-0.6918,-0.6872,-0.6835,-0.6813,-0.6801,-0.6777,-0.6793,-0.6778,-0.6806,-0.6817,-0.6826,-0.6831,-0.6836,-0.6847,-0.6723,-0.6723,-0.6723,0,0,-0.7228,-0.7182,-0.7179,-0.713,-0.7097,-0.7086,-0.7017,-0.7008,-0.6998,-0.6916,-0.6909,-0.6874,-0.6827,-0.6833,-0.6833,-0.6807,-0.6861,-0.6832,-0.684,-0.6839,-0.6842,-0.6854,-0.6864,-0.6727,-0.6726,-0.6726,0,0,-0.7309,-0.7273,-0.728,-0.7248,-0.7199,-0.7154,-0.7157,-0.7094,-0.7068,-0.7059,-0.6997,-0.6984,-0.695,-0.6919,-0.6898,-0.6966,-0.692,-0.696,-0.7019,-0.7025,-0.7034,-0.7043,-0.7067,-0.7077,-0.6964,-0.6964,-0.6965,0,-0.7374,-0.7355,-0.729,-0.7284,-0.7265,-0.7189,-0.7196,-0.7168,-0.7114,-0.7102,-0.7073,-0.7027,-0.699,-0.6987,-0.7003,-0.6989,-0.6989,-0.6968,-0.7038,-0.7046,-0.7053,-0.7075,-0.7084,-0.697,-0.6969,-0.6968,-0.6968,0,-0.7438,-0.7425,-0.7437,-0.7386,-0.7368,-0.7369,-0.7304,-0.7292,-0.7251,-0.7209,-0.7201,-0.7154,-0.712,-0.7115,-0.7075,-0.7106,-0.7092,-0.7052,-0.7002,-0.7071,-0.7091,-0.7099,-0.6977,-0.6975,-0.6974,-0.6972,0,0,-0.7581,-0.7493,-0.7499,-0.7475,-0.7414,-0.7402,-0.7399,-0.7365,-0.7357,-0.7321,-0.7317,-0.7288,-0.725,-0.7227,-0.7182,-0.7188,-0.7244,-0.7146,-0.7144,-0.7167,-0.7276,-0.7308,-0.7319,-0.7213,-0.7214,-0.7215,-0.728,0,-0.7652,-0.7643,-0.7583,-0.7591,-0.7578,-0.7505,-0.7502,-0.7464,-0.7424,-0.7407,-0.7363,-0.7344,-0.7296,-0.7281,-0.7283,-0.7237,-0.7265,-0.7231,-0.7208,-0.7208,-0.7224,-0.7329,-0.7362,-0.7426,-0.7287,-0.7289,-0.729,0,-0.7734,-0.7704,-0.771,-0.7648,-0.764,-0.7639,-0.7603,-0.7587,-0.7542,-0.7513,-0.7487,-0.7436,-0.7428,-0.738,-0.7367,-0.7346,-0.7332,-0.7308,-0.7309,-0.7306,-0.7254,-0.733,-0.7445,-0.7456,-0.7301,-0.73,-0.7299,0,-0.7839,-0.7799,-0.7798,-0.7779,-0.7707,-0.7707,-0.7677,-0.763,-0.7613,-0.758,-0.7569,-0.7536,-0.7519,-0.7494,-0.7436,-0.7406,-0.743,-0.7377,-0.7406,-0.7407,-0.7416,-0.7416,-0.7532,-0.7405,-0.7405,-0.7405,-0.7405,0,-0.7926,-0.7933,-0.7844,-0.7843,-0.7848,-0.7779,-0.7786,-0.7749,-0.7707,-0.7697,-0.7631,-0.7623,-0.7546,-0.7529,-0.7483,-0.748,-0.7472,-0.7448,-0.7436,-0.7455,-0.7458,-0.7446,-0.7441,-0.7407,-0.7407,-0.7406,-0.7406,0,-0.8045,-0.7985,-0.7979,-0.791,-0.7893,-0.79,-0.7841,-0.7837,-0.7793,-0.7781,-0.7775,-0.7706,-0.7682,-0.7621,-0.7581,-0.755,-0.756,-0.7537,-0.7576,-0.7568,-0.7601,-0.7599,-0.7714,-0.7726,-0.7591,-0.7593,-0.7594,0,-0.8105,-0.8108,-0.804,-0.8028,-0.8001,-0.7984,-0.7966,-0.7897,-0.7881,-0.7829,-0.7832,-0.7803,-0.7777,-0.7743,-0.7689,-0.7658,-0.7634,-0.7676,-0.7629,-0.7648,-0.7636,-0.7637,-0.7637,-0.7688,-0.7689,-0.7691,-0.7692,0,-0.8217,-0.8187,-0.8164,-0.8131,-0.8111,-0.8081,-0.8048,-0.8042,-0.7965,-0.795,-0.7926,-0.7905,-0.7864,-0.7837,-0.7797,-0.7765,-0.7717,-0.7707,-0.7712,-0.7732,-0.7755,-0.7744,-0.7605,-0.7705,-0.7704,-0.7703,-0.7702,-0.7702,-0.8309,-0.8308,-0.826,-0.8236,-0.8203,-0.8173,-0.8166,-0.8121,-0.8099,-0.8061,-0.8021,-0.8001,-0.7954,-0.7896,-0.7867,-0.785,-0.7824,-0.7832,-0.7834,-0.7837,-0.7846,-0.7757,-0.7842,-0.7842,-0.7842,-0.7841,-0.7841,0,-0.8419,-0.8384,-0.8362,-0.8317,-0.8298,-0.8252,-0.8212,-0.82,-0.8183,-0.8143,-0.8118,-0.8089,-0.8062,-0.8005,-0.7972,-0.7969,-0.7946,-0.7963,-0.7964,-0.7957,-0.787,-0.787,-0.7983,-0.7983,-0.7983,-0.7983,-0.7983,-0.7983,-0.8474,-0.8471,-0.8435,-0.8414,-0.8379,-0.8358,-0.8339,-0.8311,-0.8279,-0.825,-0.8227,-0.819,-0.8143,-0.8106,-0.8079,-0.8062,-0.8054,-0.8079,-0.8056,-0.7977,-0.7963,-0.795,-0.7949,-0.8077,-0.8078,-0.8144,-0.8145,-0.8145]},{"header":{"parameterUnit":"m.s-1","parameterCategory":1,"la1":30.2991,"la2":30.254,"lo1":-89.0895,"lo2":-89.0444,"dy":0.0017,"dx":0.0017,"nx":28,"ny":28,"refTime":"2024-06-12T21:00:00:Z","depth":0,"parameterNumber":3,"parameterNumberName":"V-component_of_WINDS"},"data":[0,0,0,0,0,0,0,0,0,0,0,0,0,0,0,0,0,0,0,0,0,0,0,0,0,0,0,0,0,0,0,0,0,0,0,0,0,0,0,0,0,0,0,0,0,0,0,0,0,0,0,0,0,0,0,0,0,0,-0.549,-0.549,0,-0.5518,-0.5519,-0.5519,-0.552,-0.552,-0.552,-0.5519,-0.555,-0.5551,-0.5552,0,0,0,0,0,0,0,0,0,0,0,0,0,-0.5437,-0.5438,-0.549,-0.549,-0.549,-0.5518,-0.5519,-0.5519,-0.5521,-0.552,-0.552,-0.5519,-0.5549,-0.5551,-0.5552,0,0,0,0,0,0,0,0,0,0,0,0,0,-0.5462,-0.5438,-0.549,-0.5494,-0.5495,-0.5518,-0.5519,-0.5519,-0.5521,-0.552,-0.552,-0.5519,-0.5549,-0.555,-0.5552,-0.5573,0,0,-0.5557,-0.5558,0,0,0,0,0,0,0,0,-0.5461,-0.5464,-0.5493,-0.5494,-0.5495,-0.5515,-0.5511,-0.5537,-0.5521,-0.5511,-0.5519,-0.5519,-0.5539,-0.5541,-0.5548,-0.5574,-0.5575,-0.5557,-0.5558,-0.5559,-0.556,0,0,0,0,0,0,0,-0.5459,-0.5463,-0.5501,-0.5494,-0.5495,-0.5496,-0.5499,-0.5516,-0.5527,-0.5512,-0.5512,-0.5515,-0.5539,-0.5546,-0.5548,-0.5576,-0.5557,-0.5559,-0.556,-0.556,-0.5622,-0.5622,0,0,0,0,0,0,-0.5456,-0.5461,-0.55,-0.5502,-0.5476,-0.5497,-0.55,-0.5509,-0.5527,-0.5529,-0.5516,-0.5515,-0.5543,-0.5546,-0.5549,-0.5576,-0.5559,-0.5561,-0.5562,-0.5621,-0.5622,-0.5623,0,0,0,0,0,0,-0.5455,-0.546,-0.5499,-0.5482,-0.5487,-0.5498,-0.5509,-0.551,-0.5517,-0.553,-0.5532,-0.5521,-0.5543,-0.5547,-0.5567,-0.5577,-0.5561,-0.5563,-0.5621,-0.5621,-0.5622,-0.5628,0,0,0,0,0,0,-0.5453,-0.5459,-0.5467,-0.5482,-0.5488,-0.5516,-0.5509,-0.5511,-0.552,-0.552,-0.5535,-0.5538,-0.5543,-0.5565,-0.5569,-0.5579,-0.5564,-0.562,-0.5621,-0.5622,-0.5627,-0.5629,-0.5631,0,0,0,0,0,-0.5452,-0.5467,-0.5467,-0.5472,-0.5497,-0.5516,-0.552,-0.5526,-0.5521,-0.5529,-0.5537,-0.5537,-0.5575,-0.5567,-0.5571,-0.5582,-0.5619,-0.5621,-0.5622,-0.5627,-0.5629,-0.5631,0,0,0,0,0,0,-0.5453,-0.5469,-0.5469,-0.549,-0.5502,-0.5517,-0.5527,-0.5528,-0.5541,-0.5541,-0.5547,-0.5551,-0.5571,-0.5578,-0.5569,-0.5604,-0.5597,-0.5599,-0.5598,-0.5601,-0.5603,-0.5601,-0.5566,0,0,0,0,0,-0.5455,-0.5469,-0.5483,-0.55,-0.5506,-0.5515,-0.5524,-0.5527,-0.554,-0.5545,-0.5555,-0.5567,-0.5582,-0.5592,-0.5606,-0.5628,-0.5632,-0.5638,-0.564,-0.5641,-0.5644,-0.5658,-0.5661,-0.5627,-0.5627,-0.5627,0,0,-0.5461,-0.5472,-0.548,-0.55,-0.551,-0.5525,-0.552,-0.5535,-0.5546,-0.5547,-0.5567,-0.5575,-0.5589,-0.5611,-0.5621,-0.5618,-0.5654,-0.5643,-0.5644,-0.5646,-0.5659,-0.5662,-0.5665,-0.5628,-0.5628,-0.5628,0,0,-0.5479,-0.5488,-0.5504,-0.5514,-0.5529,-0.5535,-0.5539,-0.5554,-0.5559,-0.5579,-0.558,-0.5594,-0.5619,-0.5629,-0.5638,-0.5661,-0.5662,-0.5665,-0.5676,-0.5689,-0.5692,-0.5694,-0.5704,-0.5707,-0.5667,-0.5667,-0.5667,0,-0.5485,-0.5507,-0.5512,-0.5528,-0.5538,-0.5539,-0.5556,-0.5565,-0.5584,-0.559,-0.5586,-0.5619,-0.5628,-0.5653,-0.5659,-0.5665,-0.5671,-0.5664,-0.5691,-0.5693,-0.5696,-0.5705,-0.5709,-0.5668,-0.5668,-0.5668,-0.5668,0,-0.5513,-0.5529,-0.554,-0.5558,-0.5569,-0.5585,-0.5594,-0.5604,-0.5606,-0.5613,-0.5634,-0.5646,-0.5663,-0.5669,-0.5671,-0.5695,-0.5692,-0.5689,-0.5683,-0.5699,-0.5708,-0.5712,-0.5669,-0.5668,-0.5668,-0.5668,0,0,-0.5533,-0.5555,-0.5559,-0.5568,-0.5585,-0.5597,-0.5614,-0.5631,-0.564,-0.5652,-0.5668,-0.5689,-0.5687,-0.5696,-0.57,-0.5712,-0.5731,-0.5708,-0.5708,-0.5713,-0.5759,-0.5763,-0.5767,-0.5731,-0.5732,-0.5732,-0.5759,0,-0.5554,-0.5584,-0.559,-0.5616,-0.5632,-0.5634,-0.5648,-0.566,-0.5667,-0.5681,-0.5689,-0.5705,-0.57,-0.5706,-0.5717,-0.5726,-0.5741,-0.5724,-0.5746,-0.5747,-0.5744,-0.5771,-0.5774,-0.5799,-0.5762,-0.5763,-0.5763,0,-0.5583,-0.5598,-0.5626,-0.5641,-0.5648,-0.5661,-0.5678,-0.5691,-0.5705,-0.5709,-0.5721,-0.5723,-0.5741,-0.5733,-0.5758,-0.5747,-0.5756,-0.5762,-0.5763,-0.5767,-0.5757,-0.5777,-0.5806,-0.5811,-0.5768,-0.5768,-0.5768,0,-0.5597,-0.5623,-0.5644,-0.5651,-0.567,-0.5679,-0.5687,-0.5701,-0.5711,-0.5726,-0.5733,-0.5749,-0.5758,-0.5771,-0.5778,-0.5771,-0.5804,-0.5795,-0.5809,-0.5809,-0.5817,-0.5817,-0.585,-0.582,-0.582,-0.582,-0.582,0,-0.5621,-0.5639,-0.565,-0.5663,-0.5683,-0.569,-0.5709,-0.5717,-0.5729,-0.5744,-0.5746,-0.576,-0.5768,-0.5783,-0.5789,-0.581,-0.5814,-0.5819,-0.582,-0.582,-0.5819,-0.5827,-0.5826,-0.5821,-0.5821,-0.5821,-0.582,0,-0.564,-0.5649,-0.5672,-0.5688,-0.5692,-0.5706,-0.572,-0.5733,-0.574,-0.5759,-0.5764,-0.5775,-0.5793,-0.5801,-0.5823,-0.5827,-0.5852,-0.5852,-0.5848,-0.5849,-0.5863,-0.5862,-0.5903,-0.591,-0.5874,-0.5874,-0.5875,0,-0.5656,-0.567,-0.5687,-0.5698,-0.5706,-0.5723,-0.5734,-0.574,-0.5752,-0.5769,-0.578,-0.5799,-0.5814,-0.5843,-0.5853,-0.587,-0.5871,-0.5885,-0.5874,-0.5873,-0.5874,-0.5874,-0.5876,-0.5887,-0.5887,-0.5888,-0.5888,0,-0.5683,-0.5687,-0.5703,-0.572,-0.5733,-0.5747,-0.5761,-0.5769,-0.5778,-0.5791,-0.581,-0.5821,-0.5844,-0.5863,-0.5881,-0.589,-0.5891,-0.5891,-0.5895,-0.5896,-0.5894,-0.5897,-0.5855,-0.589,-0.589,-0.589,-0.589,-0.589,-0.5702,-0.5715,-0.573,-0.5748,-0.5759,-0.5772,-0.5786,-0.5795,-0.5811,-0.583,-0.5833,-0.5854,-0.5868,-0.5893,-0.5902,-0.5919,-0.5916,-0.5922,-0.5923,-0.5925,-0.5927,-0.589,-0.5922,-0.5922,-0.5922,-0.5922,-0.5922,0,-0.5731,-0.5741,-0.5757,-0.5777,-0.5791,-0.5791,-0.5806,-0.5818,-0.5836,-0.585,-0.5865,-0.5887,-0.5906,-0.5918,-0.5936,-0.5947,-0.5948,-0.5952,-0.5952,-0.5955,-0.5928,-0.5923,-0.5951,-0.5951,-0.5951,-0.5951,-0.5951,-0.5951,-0.5748,-0.5771,-0.5776,-0.5805,-0.5814,-0.5835,-0.5844,-0.5857,-0.5868,-0.5893,-0.5908,-0.5916,-0.5929,-0.5949,-0.5966,-0.5969,-0.5976,-0.5981,-0.5984,-0.5959,-0.5956,-0.5953,-0.5949,-0.5982,-0.5982,-0.6009,-0.601,-0.601]}]]